Albany, NY

5:40 PM EDT on July 24, 2017 (GMT -0400)
Albany International

Weather History for KALB - October, 2010

Change the Weather History Date:

Sunday, October 24, 2010

  Actual Average Record
Temperature  
Mean Temperature 46 °F 47 °F  
Max Temperature 54 °F 57 °F 74 °F (1963)
Min Temperature 38 °F 37 °F 16 °F (1969)
Degree Days  
Heating Degree Days 19 18  
Month to date heating degree days 358 343  
Since 1 July heating degree days 458 510  
Cooling Degree Days 0 0  
Month to date cooling degree days 0 0  
Year to date cooling degree days 839 594  
Moisture  
Dew Point 39 °F    
Average Humidity 86    
Maximum Humidity 100    
Minimum Humidity 71    
Precipitation  
Precipitation 0.03 in 0.11 in 1.69 in (1923)
Month to date precipitation 5.82 2.88  
Year to date precipitation 30.08 32.33  
Snow  
Snow 0.00 in 0.00 in T in (1962)
Month to date snowfall 0.0 0.2  
Since 1 July snowfall 0.0 0.2  
Since 1 September snowfall 0.0 0.2  
Snow Depth 0.00 in    
Sea Level Pressure  
Sea Level Pressure 30.12 in    
Wind  
Wind Speed 2 mph (North)    
Max Wind Speed 8 mph    
Max Gust Speed 9 mph    
Visibility 10 miles    
Events Rain    
T = Trace of Precipitation, MM = Missing Value Source: NWS Daily Summary

Daily Weather History Graph

Daily Weather History Graph

Search for Another Location

Airport or City:

Trip Planner

Search our weather history database for the weather conditions in past years. The results will help you decide how hot, cold, wet, or windy it might be!

Date:

Astronomy

Oct. 24, 2010 Rise Set
Actual Time 7:19 AM EDT 5:58 PM EDT
Civil Twilight 6:50 AM EDT 6:27 PM EDT
Nautical Twilight 6:17 AM EDT 7:00 PM EDT
Astronomical Twilight 5:44 AM EDT 7:33 PM EDT
Moon 6:34 PM EDT 9:02 AM EDT
Length of Visible Light 11h 37m
Length of Day
10h 39m
Full, 97% of the Moon is Illuminated
Oct 24
Full
Oct 30
Last Quarter
Nov 6
New
Nov 13
First Quarter
Nov 21
Full

Hourly Weather History & Observations

Time (EDT) Temp. Windchill Dew Point Humidity Pressure Visibility Wind Dir Wind Speed Gust Speed Precip Events Conditions
12:51 AM 44.1 °F 42.5 °F 39.9 °F 85% 30.19 in 10.0 mi NNW 3.5 mph - 0.01 in Rain Light Rain
1:51 AM 43.0 °F 39.5 °F 37.9 °F 82% 30.19 in 10.0 mi North 5.8 mph - 0.00 in Rain Light Rain
2:51 AM 43.0 °F - 37.0 °F 80% 30.20 in 10.0 mi Calm Calm - 0.01 in Rain Light Rain
3:51 AM 42.1 °F 40.2 °F 36.0 °F 79% 30.21 in 10.0 mi NNE 3.5 mph - 0.00 in   Light Drizzle
4:51 AM 41.0 °F 39.0 °F 35.1 °F 79% 30.19 in 10.0 mi NNE 3.5 mph - 0.00 in   Overcast
5:39 AM 41.0 °F 38.0 °F 35.6 °F 81% 30.19 in 10.0 mi North 4.6 mph - 0.00 in   Overcast
5:51 AM 41.0 °F 39.0 °F 35.1 °F 79% 30.19 in 10.0 mi North 3.5 mph - 0.00 in   Overcast
6:51 AM 41.0 °F 38.0 °F 34.0 °F 76% 30.17 in 10.0 mi North 4.6 mph - N/A   Overcast
7:51 AM 41.0 °F 39.0 °F 35.1 °F 79% 30.17 in 10.0 mi North 3.5 mph - N/A   Overcast
8:51 AM 43.0 °F - 35.1 °F 74% 30.17 in 10.0 mi Calm Calm - N/A   Mostly Cloudy
9:04 AM 42.8 °F - 35.6 °F 76% 30.17 in 10.0 mi Calm Calm - N/A   Mostly Cloudy
9:51 AM 45.0 °F - 37.0 °F 74% 30.17 in 10.0 mi Calm Calm - N/A   Mostly Cloudy
10:51 AM 46.0 °F - 37.0 °F 71% 30.15 in 10.0 mi Calm Calm - N/A   Overcast
11:51 AM 45.0 °F 43.5 °F 39.0 °F 80% 30.14 in 7.0 mi NNE 3.5 mph - 0.01 in Rain Light Rain
12:51 PM 46.9 °F - 42.1 °F 83% 30.13 in 10.0 mi North 4.6 mph - 0.01 in Rain Light Rain
1:51 PM 48.9 °F - 43.0 °F 80% 30.09 in 10.0 mi Calm Calm - 0.00 in   Mostly Cloudy
2:51 PM 53.1 °F - 46.0 °F 77% 30.06 in 10.0 mi Variable 4.6 mph - N/A   Mostly Cloudy
3:51 PM 53.1 °F - 45.0 °F 74% 30.04 in 10.0 mi Calm Calm - N/A   Overcast
4:51 PM 52.0 °F - 45.0 °F 77% 30.03 in 10.0 mi North 4.6 mph - N/A   Overcast
5:51 PM 48.9 °F - 44.1 °F 83% 30.03 in 10.0 mi NNE 5.8 mph - N/A   Overcast
6:51 PM 45.0 °F 42.6 °F 41.0 °F 86% 30.04 in 10.0 mi NE 4.6 mph - N/A   Scattered Clouds
7:51 PM 45.0 °F - 41.0 °F 86% 30.03 in 10.0 mi Calm Calm - N/A   Mostly Cloudy
8:51 PM 44.1 °F - 39.9 °F 85% 30.04 in 10.0 mi Calm Calm - N/A   Mostly Cloudy
9:51 PM 43.0 °F - 39.9 °F 89% 30.04 in 10.0 mi Calm Calm - N/A   Scattered Clouds
10:51 PM 41.0 °F - 39.0 °F 93% 30.04 in 7.0 mi Calm Calm - N/A   Mostly Cloudy
11:51 PM 39.9 °F - 39.0 °F 97% 30.02 in 5.0 mi Calm Calm - N/A   Mostly Cloudy